Regional Weather Roundup
Issued by NWS Upton, NY

Current Version | Previous Version | Text Only | Print | Product List | Glossary On
Versions: 1 2 3 4 5 6 7 8 9 10 11 12 13 14 15 16 17 18 19 20 21 22 23 24 25 26 27 28
000
ASUS41 KOKX 231005
RWROKX

REGIONAL WEATHER ROUNDUP
NATIONAL WEATHER SERVICE NEW YORK NY
600 AM EDT THU OCT 23 2014

NOTE: "FAIR" INDICATES FEW OR NO CLOUDS BELOW 12,000 FEET WITH NO
SIGNIFICANT WEATHER AND/OR OBSTRUCTIONS TO VISIBILITY.

NYZ071-072-176-178-NJZ106-104-231100-
NEW YORK CITY METRO AREA


CITY           SKY/WX    TMP DP  RH WIND       PRES   REMARKS
CENTRAL PARK   CLOUDY    51  47  86 VRB6      29.73S
LAGUARDIA APRT CLOUDY    52  47  83 N12G22    29.70R
KENNEDY INTL   LGT RAIN  52  48  86 N15G25    29.69R
NEWARK/LIBERTY LGT RAIN  51  49  92 N14G22    29.72R
BRNX BOT. GARD   N/A     50  46  87 NE9       29.72R
TETERBORO      CLOUDY    52  46  80 N9        29.70S
$$

NYZ177-179-078>081-231100-
LONG ISLAND NEW YORK

CITY           SKY/WX    TMP DP  RH WIND       PRES   REMARKS
FARMINGDALE    LGT RAIN  52  48  86 N14G24    29.66F
ISLIP          LGT RAIN  51  48  89 N18       29.63F
SHIRLEY        CLOUDY    51  49  92 N13       29.64S
WESTHAMPTON    CLOUDY    52  48  86 N22G31    29.62F
MONTAUK POINT    N/A     54  49  83 N20G30    29.58F
$$

NYZ052-065-067-231100-
HUDSON VALLEY

CITY           SKY/WX    TMP DP  RH WIND       PRES   REMARKS
WHITE PLAINS   LGT RAIN  50  45  83 N18G28    29.68S
NEWBURGH       CLOUDY    50  46  87 N20G31    29.76F
MONTGOMERY     CLOUDY    49  46  90 N9        29.76R
POUGHKEEPSIE   CLOUDY    50  45  83 N17G31    29.76S
ALBANY         RAIN      47  43  86 N12       29.87R FOG
$$

NJZ001-105-106-008-010-013-015-019>022-104-231100-
NEW JERSEY

CITY           SKY/WX    TMP DP  RH WIND       PRES   REMARKS
NEWARK/LIBERTY LGT RAIN  51  49  92 N14G22    29.72R
TETERBORO      CLOUDY    52  46  80 N9        29.70S
CALDWELL       CLOUDY    52  46  80 MISG      29.73S
MORRISTOWN     RAIN      54  48  82 N6        29.73F
SOMERVILLE     LGT RAIN  52  46  80 N7        29.73R
SUSSEX         LGT RAIN  53  46  77 N5        29.76S
ANDOVER          N/A     49  46  90 N9        29.76S
TRENTON        LGT RAIN  51  46  83 N13       29.74R
MILLVILLE      CLOUDY    52  46  80 NW13G22   29.74R
ATLANTIC CITY  CLOUDY    51  49  92 NW15      29.71R
WRIGHTSTOWN    LGT RAIN  52  47  84 NW16      29.71R
TOMS RIVER     CLOUDY    52  48  87 N6        29.70R
BELMAR         CLOUDY    52  45  76 NW13G20   29.70R
$$

PAZ047>061-062-071-231100-
EASTERN PENNSYLVANIA

CITY           SKY/WX    TMP DP  RH WIND       PRES   REMARKS
PHILADELPHIA   CLOUDY    53  45  74 NW17      29.77R
ALLENTOWN      CLOUDY    51  43  74 N14G22    29.80R
SCRANTON       LGT RAIN  46  42  86 N8        29.86S
$$

CTZ002-004>006-009-010-012-RIZ004-006-007-MAZ004-011-015-231100-
SOUTHERN NEW ENGLAND
 IN CT

CITY           SKY/WX    TMP DP  RH WIND       PRES   REMARKS
BRADLEY INTL   LGT RAIN  50  46  86 N22       29.70S
HARTFORD       CLOUDY    50  46  86 N16G24    29.69F
DANBURY        LGT RAIN  51  44  77 N13G20    29.72S
WTRBRY/OXFORD  LGT RAIN  48  43  81 NE20G31   29.68S
BRIDGEPORT     CLOUDY    53  46  77 N22G30    29.66S
MERIDEN        RAIN      50  46  86 N13G24    29.68F FOG
NEW HAVEN      CLOUDY    52  46  80 N25G37    29.64S
CHESTER        CLOUDY    48  46  93 N12G20    29.64F
GROTON         MOCLDY    50  47  89 N22G31    29.58F
WILLIMANTIC    CLOUDY    52  45  77 N13G25    29.67F

 IN RI

CITY           SKY/WX    TMP DP  RH WIND       PRES   REMARKS
PROVIDENCE     LGT RAIN  51  48  89 N24G35    29.58F
BLOCK ISLAND   CLOUDY    52  48  87 N20G36    29.56F
WESTERLY       CLOUDY    51  47  86 N18G31    29.59F

 IN MA

CITY           SKY/WX    TMP DP  RH WIND       PRES   REMARKS
BOSTON         HVY RAIN  51  50  96 N29G41    29.67F FOG
WORCESTER      RAIN      45  44  97 N23G33    29.70S FOG
WESTFIELD      RAIN      50  47  89 N17G29    29.72F
PROVINCETOWN   CLOUDY    55   3  12 NE9       29.63R
NANTUCKET      MOCLDY    57  55  93 E5        29.53R
$$

ANZ330-335-338-340-345-350-353-355-231100-
COASTAL MARINE OBSERVATIONS


STATION/POSITION TIME  SKY/WX   TEMP    WIND        PRES    VSBY  WAVE
                                AIR SEA DIR/SP/G                  HT/PER
                 (UTC)          (F)     (DEG/KT/KT) (MB)    (MI)  (FT/S)
NY HARB ENTRANCE NOT AVBL
4S FIRE IS       1000               63                N/A           7/ 7
20S FIRE ISLAND  1000            55 64   10/ 29/ 37 1001.4          9/ 7
23SW MTP         1000                                 N/A          10/ 7
HUDSON CANYON    1000            61 67   10/ 27/ 31  998.7         11/ 8
EXECUTION ROCKS  1000            53 62  360/ 10/ 17   N/A
WESTERN LI SOUND 1000            54      10/  8/ 14   N/A           3/ 6
CENTRAL LI SOUND 0900            54 63   10/ 21/ 29   N/A           5/ 4
EASTERN LI SOUND 0900            54 63   20/ 21/ 33   N/A
ROBBINS REEF     1000            52     350/ 16/ 19 1004.6
$$


>>>>>>>>>>>>>>>>>>>>>>>>>>>> KEY <<<<<<<<<<<<<<<<<<<<<<<<<<<
>                                                          <
>     SKY/WX - SKY CONDITION/PRESENT WEATHER               <
>     TMP    - TEMPERATURE IN FAHRENHEIT                   <
>     DP     - DEWPOINT IN FAHRENHEIT                      <
>     RH     - RELATIVE HUMIDITY IN PERCENT                <
>     WIND   - DIRECTION AND SPEED IN MPH                  <
>     PRES   - MEAN SEA LEVEL PRESSURE IN INCHES OF HG     <
>     WCI    - WIND CHILL INDEX                            <
>     VSB    - VISIBILITY IN MILES                         <
>     HX     - HEAT INDEX                                  <
>     TC     - TEMPERATURE IN CELSIUS                      <
>     VRB    - VARIABLE WIND DIRECTION                     <
>                                                          <
>>>>>>>>>>>>>>>>>>>>>>>>>>>> KEY <<<<<<<<<<<<<<<<<<<<<<<<<<<





USA.gov is the U.S. government's official web portal to all federal, state and local government web resources and services.